Location: Wildcat Hills Observatory
(41.6350°N, 103.6812°W)
Time: 02:43:51
(UTC-06:00)

NOSS 3-2 (C) - Pass Details

Date: 23 June 2018
Orbit: 847 x 1366 km, 63.4° (Epoch: 18 September)

Event Time Altitude Azimuth Distance (km) Brightness Sun altitude
Rises 22:26:47 0° 325° (NW) 3,995 8.6 -16.2°
Reaches altitude 10° 22:29:23 10° 327° (NNW) 3,101 7.5 -16.5°
Maximum altitude 22:36:59 78° 54° (NE) 1,304 4.1 -17.3°
Enters shadow 22:42:16 25° 138° (SE) 2,398 4.9 -17.8°
